This is the latest recevied weather packets stored in our database for station/object KB9HUO. If no packets are shown the sender has not sent any weather packets the latest 10 day(s).
| Time | Temp. | Humidity | Pressure | Rain* | Wind** | Luminosity | Snow |
|---|---|---|---|---|---|---|---|
| 1787954726 | 27.78° C | 53% | 1020.1 hPa | 0 mm | - | 26 W/m² | - |
| 1787954421 | 27.78° C | 53% | 1020.3 hPa | 0 mm | - | 27 W/m² | - |
| 1787954116 | 27.78° C | 55% | 1020.2 hPa | 0 mm | - | 27 W/m² | - |
| 1787953819 | 27.22° C | 55% | 1020.3 hPa | 0 mm | - | 28 W/m² | - |
| 1787953515 | 27.22° C | 56% | 1020.2 hPa | 0 mm | - | 29 W/m² | - |
| 1787953215 | 27.78° C | 53% | 1020.1 hPa | 0 mm | - | 27 W/m² | - |
| 1787952912 | 27.78° C | 53% | 1020.4 hPa | 0 mm | - | 42 W/m² | - |
| 1787952607 | 28.33° C | 52% | 1020.4 hPa | 0 mm | - | 36 W/m² | - |
| 1787952306 | 28.33° C | 51% | 1020.4 hPa | 0 mm | - | 36 W/m² | - |
| 1787952003 | 27.78° C | 54% | 1020.4 hPa | 0 mm | - | 40 W/m² | - |
| 1787951697 | 27.78° C | 54% | 1020.4 hPa | 0 mm | - | 44 W/m² | - |
| 1787951393 | 28.33° C | 54% | 1020.4 hPa | 0 mm | - | 40 W/m² | - |
| 1787951089 | 28.33° C | 53% | 1020.6 hPa | 0 mm | - | 37 W/m² | - |
| 1787950784 | 28.33° C | 49% | 1020.3 hPa | 0 mm | - | 36 W/m² | - |
| 1787950479 | 28.33° C | 51% | 1020.7 hPa | 0 mm | - | 44 W/m² | - |
| 1787950177 | 28.33° C | 51% | 1020.6 hPa | 0 mm | - | 39 W/m² | - |
| 1787949872 | 28.33° C | 53% | 1020.6 hPa | 0 mm | - | 39 W/m² | - |
| 1787949571 | 28.33° C | 50% | 1020.6 hPa | 0 mm | - | 46 W/m² | - |
| 1787949266 | 28.33° C | 49% | 1020.6 hPa | 0 mm | - | 49 W/m² | - |
| 1787948961 | 28.33° C | 47% | 1020.5 hPa | 0 mm | - | 43 W/m² | - |
| 1787948657 | 28.33° C | 51% | 1020.6 hPa | 0 mm | - | 44 W/m² | - |
| 1787948353 | 28.33° C | 48% | 1020.6 hPa | 0 mm | - | 67 W/m² | - |
| 1787948052 | 28.89° C | 48% | 1020.8 hPa | 0 mm | - | 45 W/m² | - |
| 1787947752 | 28.89° C | 49% | 1020.6 hPa | 0 mm | - | 44 W/m² | - |
| 1787947446 | 28.89° C | 50% | 1020.6 hPa | 0 mm | - | 44 W/m² | - |
* Rain latest hour (hover to see other rain measurements)
** Current wind speed in m/s (hover to see current wind gust speed)